This demonstration page uses our WeatherBlox Daily Observations layout. Learn more.

Left ArrowRight Arrow

Hourly Observations for December 25, 2020

Temp ( °F °C ) Dew Point ( °F °C ) Humidity (%) Winds ( mph kmh ) Pressure ( in mb ) Visibility ( mi km ) Precip ( " mm )
12:53 am 00:53 Cloudy 17 -8.3 11 -11.7 77 77 WNW 5 7 29.91 1013 10 16 0.00 0.00
1:53 am 01:53 Cloudy 17 -8.3 9 -12.8 70 70 WNW 8 13 29.89 1012 10 16 0.00 0.00
2:53 am 02:53 Cloudy 17 -8.3 8 -13.3 68 68 WNW 12 19 29.88 1012 10 16 0.00 0.00
3:53 am 03:53 Cloudy 17 -8.3 8 -13.3 68 68 WNW 10 17 29.87 1012 10 16 0.00 0.00
4:53 am 04:53 Cloudy 17 -8.3 6 -14.4 62 62 WNW 12 19 29.87 1012 10 16 0.00 0.00
5:53 am 05:53 Cloudy 16 -8.9 6 -14.4 65 65 W 12 19 29.89 1012 10 16 0.00 0.00
6:53 am 06:53 Cloudy 14 -10 2 -16.7 58 58 WNW 14 22 29.91 1013 10 16 0.00 0.00
7:53 am 07:53 Cloudy 13 -10.6 4 -15.6 67 67 W 12 19 29.93 1014 10 16 0.00 0.00
8:53 am 08:53 Cloudy with Haze 13 -10.6 6 -14.4 74 74 W 13 20 29.96 1015 5 8 0.00 0.00
9:19 am 09:19 Cloudy with Light Snow 13 -10.6 6 -14.4 74 74 W 13 20 30.00 1016 2 3 0.00 0.00
9:23 am 09:23 Cloudy with Light Snow 13 -10.6 6 -14.4 74 74 W 12 19 30.00 1016 2 2 0.00 0.00
9:32 am 09:32 Cloudy with Light Snow 13 -10.6 7 -13.9 77 77 W 12 19 30.00 1016 1 2 0.00 0.00
9:48 am 09:48 Cloudy with Light Snow 14 -10 9 -13 79 79 WSW 9 15 30.00 1016 2 3 0.00 0.00
9:53 am 09:53 Cloudy with Light Snow 14 -10 7 -13.9 73 73 WSW 9 15 29.98 1015 2 3 0.00 0.00
10:04 am 10:04 Cloudy with Light Snow 15 -9.4 8 -13.3 74 74 W 8 13 30.01 1016 4 6 0.00 0.00
10:53 am 10:53 Cloudy with Light Snow 15 -9.4 7 -13.9 70 70 W 10 17 29.98 1015 4 6 0.00 0.00
11:38 am 11:38 Cloudy with Light Snow 16 -8.9 8 -13.3 71 71 W 9 15 30.01 1016 3 4 0.00 0.00
11:53 am 11:53 Cloudy with Light Snow 16 -8.9 8 -13.3 71 71 W 9 15 29.99 1016 3 4 0.00 0.00
12:00 pm 12:00 Cloudy with Light Snow 16 -8.9 7 -13.9 67 67 W 12 19 30.02 1016 4 6 0.00 0.00
12:53 pm 12:53 Cloudy with Light Snow 17 -8.3 8 -13.3 68 68 W 14 22 29.99 1016 3 5 0.00 0.00
1:01 pm 13:01 Cloudy with Light Snow 18 -7.8 8 -13.3 65 65 W 10 17 30.02 1017 2 3 0.00 0.00
1:24 pm 13:24 Cloudy with Light Snow 17 -8.3 8 -13.3 68 68 W 10 17 30.04 1017 4 6 0.00 0.00
1:53 pm 13:53 Cloudy with Light Snow 17 -8.3 8 -13.3 68 68 W 10 17 30.02 1017 3 4 0.00 0.00
2:04 pm 14:04 Cloudy with Light Snow 17 -8.3 9 -12.8 70 70 W 12 19 30.05 1017 2 3 0.00 0.00
2:13 pm 14:13 Cloudy with Light Snow 17 -8.3 9 -12.8 70 70 WSW 12 19 30.05 1017 3 4 0.00 0.00
2:25 pm 14:25 Cloudy with Light Snow 18 -7.8 9 -12.8 68 68 W 8 13 30.03 1017 4 6 0.00 0.00
2:50 pm 14:50 Cloudy 18 -8 9 -13 68 68 WSW 13 20 30.04 1017 8 13 0.00 0.00
2:53 pm 14:53 Cloudy 17 -8.3 8 -13.3 68 68 WSW 12 19 30.02 1017 9 14 0.00 0.00
3:34 pm 15:34 Cloudy 17 -8.3 7 -13.9 64 64 W 14 22 30.07 1018 10 16 0.00 0.00
3:53 pm 15:53 Cloudy 17 -8.3 7 -13.9 64 64 WSW 15 24 30.04 1017 10 16 0.00 0.00
4:53 pm 16:53 Cloudy 17 -8.3 7 -13.9 64 64 W 9 15 30.07 1018 10 16 0.00 0.00
5:53 pm 17:53 Cloudy 17 -8.3 6 -14.4 62 62 WSW 10 17 30.07 1018 10 16 0.00 0.00
6:00 pm 18:00 Cloudy 17 -8.3 6 -14.4 62 62 W 12 19 30.11 1019 10 16 0.00 0.00
6:53 pm 18:53 Clear 15 -9.4 5 -15 64 64 WSW 9 15 30.10 1019 10 16 0.00 0.00
7:53 pm 19:53 Clear 14 -10 4 -15.6 64 64 WSW 12 19 30.11 1020 10 16 0.00 0.00
8:53 pm 20:53 Mostly Cloudy 14 -10 4 -15.6 64 64 WSW 15 24 30.11 1020 10 16 0.00 0.00
9:53 pm 21:53 Mostly Cloudy 14 -10 4 -15.6 64 64 WSW 16 26 30.11 1020 10 16 0.00 0.00
10:53 pm 22:53 Clear 14 -10 5 -15 67 67 VRB 7 11 30.12 1020 10 16 0.00 0.00
11:53 pm 23:53 Clear 14 -10 5 -15 67 67 SW 8 13 30.12 1020 10 16 0.00 0.00

Powered by AerisWeather